Погода в Лазурном

Россия / Челябинская область     55°21′24″N   61°41′12″E
темп.,
°C
ветер,
м/с
пор.,
м/с
влажн.,
%
обл.,
%
осадки,
мм/ч
давл.,
гПа
погр.,
м
21 января, чт
чт2123:00−17зсз51285100 0.1 1013390
02:00−20з41088100 0.0 1014215
05:00−21з488899 0.0 1014151
08:00−22з368989 0.0 101494
11:00−20зюз398894 0.0 1015429
14:00−17з478899 0.0 1015501
17:00−20зюз239092 0.0 101422
20:00−21з238975 0.0 101523
22 января, пт
пт2223:00−21з239086 0.0 101540
02:00−22з3490100 0.0 101564
05:00−21з3592100 0.0 1016102
08:00−22з3491100 0.0 101758
11:00−18зсз4894100 0.1 1018372
14:00−17сз3491100 0.1 1019402
17:00−19ссв2397100 0.1 102158
20:00−23ссв4797100 0.1 1024222
23 января, сб
сб2323:00−28с349897 0.1 102763
02:00−31с349723 0.0 103045
05:00−33ссз339812 0.0 103322
08:00−34ссз239753 0.0 103619
11:00−32с119545 0.0 103733
14:00−28ююв229282 0.0 1037219
17:00−29ююв359691 0.0 1036146
20:00−27ю4795100 0.0 1036251
24 января, вс
вс2423:00−25ю5895100 0.0 1034279
02:00−23ю5898100 0.3 1032282
05:00−22ююв4798100 0.7 1031276
08:00−21юв4697100 0.3 1031225
11:00−19юв3596100 0.4 1031209
14:00−17юв3596100 0.1 1030235
17:00−15юв4696100 0.6 1029236
20:00−14юв3596100 1.1 1029181
25 января, пн
пн2523:00−12юв3596100 1.7 1028143
02:00−9ю2396100 0.1 102769
05:00−2зюз389395 0.2 1026237
08:00−2зюз4109097 0.3 1026328
11:00−1з4119187 0.3 1027556
14:00+1з4119489 0.0 1027556
17:000з498789 0.0 1028285
20:00−1з3994100 0.0 1028328